Weather History for Moron de la Frontera, Spain

Change the Weather History Date:

Friday, June 21, 2013

  Actual Average Record
Temperature  
Mean Temperature 74 °F -  
Max Temperature 89 °F 90 °F 104 °F (1999)
Min Temperature 59 °F 63 °F 55 °F (2007)
Cooling Degree Days 9    
Growing Degree Days 24 (Base 50)    
Moisture  
Dew Point 56 °F    
Average Humidity 55    
Maximum Humidity 82    
Minimum Humidity 31    
Precipitation  
Precipitation 0.00 in - - ()
Sea Level Pressure  
Sea Level Pressure 30.03 in    
Wind  
Wind Speed 3 mph ()    
Max Wind Speed 8 mph    
Max Gust Speed -    
Averages and records for this station are not official NWS values.
T = Trace of Precipitation, MM = Missing Value Source: Averaged Metar Reports

Daily Weather History Graph

Daily Weather History Graph

Search for Another Location

Airport:

Trip Planner

Search our weather history database for the weather conditions in past years. The results will help you decide how hot, cold, wet, or windy it might be!

Date:

Astronomy

Jun. 21, 2013 Rise Set
Actual Time 7:02 AM CEST 9:45 PM CEST
Civil Twilight 6:31 AM CEST 10:16 PM CEST
Nautical Twilight 5:53 AM CEST 10:55 PM CEST
Astronomical Twilight 5:09 AM CEST 11:39 PM CEST
Moon 7:42 PM CEST (6/21) 5:03 AM CEST (6/21)
Length of Visible Light 15h 45m
Length of Day
14h 43m
Waxing Gibbous, 94% of the Moon is Illuminated
Jun 21
Waxing Gibbous
Jun 23
Full
Jun 30
Last Quarter
Jul 8
New
Jul 16
First Quarter

Hourly Weather History & Observations

Time (CEST) Temp. Heat Index Dew Point Humidity Pressure Visibility Wind Dir Wind Speed Gust Speed Precip Events Conditions
12:00 AM 69.8 °F - 57.2 °F 64% 30.06 in - SW 8.1 mph - N/A   Clear
1:00 AM 66.2 °F - 55.4 °F 68% 30.06 in - SSW 5.8 mph - N/A   Clear
2:00 AM 68.0 °F - 55.4 °F 64% 30.04 in - South 5.8 mph - N/A   Clear
3:00 AM 64.4 °F - 55.4 °F 73% 30.04 in - SSW 4.6 mph - N/A   Clear
4:00 AM 62.6 °F - 55.4 °F 77% 30.04 in - SSW 3.5 mph - N/A   Clear
5:00 AM 64.4 °F - 55.4 °F 73% 30.01 in - Variable 1.2 mph - N/A   Clear
6:00 AM 62.6 °F - 53.6 °F 72% 30.01 in - Calm Calm - N/A   Clear
7:00 AM 59.0 °F - 53.6 °F 82% 30.01 in - Calm Calm - N/A   Clear
8:00 AM 59.0 °F - 53.6 °F 82% 30.04 in - Calm Calm - N/A   Clear
9:00 AM 69.8 °F - 55.4 °F 60% 30.04 in - Calm Calm - N/A   Clear
10:00 AM 73.4 °F - 57.2 °F 57% 30.04 in - Calm Calm - N/A   Clear
11:00 AM 77.0 °F - 57.2 °F 50% 30.06 in - Calm Calm - N/A   Clear
12:00 PM 77.0 °F - 57.2 °F 50% 30.06 in - Calm Calm - N/A   Clear
1:00 PM 80.6 °F 80.8 °F 57.2 °F 45% 30.04 in - Calm Calm - N/A   Clear
2:00 PM 84.2 °F 83.5 °F 57.2 °F 40% 30.04 in - Calm Calm - N/A   Clear
3:00 PM 84.2 °F 83.0 °F 55.4 °F 37% 30.04 in - Calm Calm - N/A   Clear
4:00 PM 87.8 °F 86.5 °F 57.2 °F 35% 30.01 in - Calm Calm - N/A   Clear
5:00 PM 89.6 °F 87.7 °F 55.4 °F 31% 30.01 in - Variable 3.5 mph - N/A   Clear
6:00 PM 89.6 °F 87.7 °F 55.4 °F 31% 29.98 in - Calm Calm - N/A   Clear
7:00 PM 89.6 °F 88.1 °F 57.2 °F 33% 29.98 in - Calm Calm - N/A   Clear
8:00 PM 87.8 °F 85.7 °F 53.6 °F 31% 29.98 in - WSW 5.8 mph - N/A   Clear
9:00 PM 84.2 °F 83.8 °F 59.0 °F 42% 30.01 in - West 6.9 mph - N/A   Clear
10:00 PM 80.6 °F 81.5 °F 60.8 °F 51% 30.01 in - West 6.9 mph - N/A   Clear
11:00 PM 75.2 °F - 60.8 °F 61% 30.04 in - Variable 3.5 mph - N/A   Clear